ギャラッド彗星

C/2009 P1 ( Garradd )

English version
Home page
Updated on April 29, 2013

---------------------------------------------------------------------

・ プロフィール

発見日 2009年8月13日
発見光度 17.5等
発見者 G. J. Garradd (Siding Spring Observatory)

・ 写真集

・ 軌道要素

Epoch 2011 Dec. 25.0 TT = JDT 2455920.5
T 2011 Dec. 23.67610 TT                                 MPC
q   1.5505403            (2000.0)            P               Q
z  -0.0006495      Peri.   90.74633     -0.16659278     -0.82691496
                   Node   325.99766     -0.58720744     +0.52077339
e   1.0010071      Incl.  106.17741     +0.79210749     +0.21214790
From 8763 observations 2008 Sept. 27-2013 Apr. 1, mean residual 0".6.
     Nongravitational parameters A1 = +1.79, A2 = -0.5975.

・ 星図

・ 光度変化

        m1 = 3.2 + 5 logΔ + 10.5 log r

---------------------------------------------------------------------

軌道要素はM.P.E.C. 2013-G31に掲載されたものです。
星図はステラナビゲータ Ver.8 (アストロアーツ) で作成したものです。
光度グラフはComet for Windowsで作成したものです。

---------------------------------------------------------------------

Copyright(C) Seiichi Yoshida (comet@aerith.net). All rights reserved.